Regional Weather Roundup
Issued by NWS

Home | Current Version | Previous Version | Text Only | Print | Product List | Glossary Off
Versions: 1 2 3 4 5 6 7 8 9 10 11 12 13 14 15 16 17 18 19 20 21 22 23 24 25 26 27 28 29 30 31 32 33 34 35 36 37 38 39 40 41 42 43 44 45 46 47 48 49 50

000
ASUS43 KLMK 221602
RWRKY
KENTUCKY REGIONAL WEATHER ROUNDUP
NATIONAL WEATHER SERVICE LOUISVILLE KY
1200 PM EDT WED OCT 22 2014

NOTE "FAIR" INDICATES FEW OR NO CLOUDS BELOW 12,000 FEET
WITH NO SIGNIFICANT WEATHER AND/OR OBSTRUCTIONS TO VISIBILITY.

KYZ001>023-026-027-061>063-070>075-221700-
WESTERN AND SOUTH CENTRAL KENTUCKY

CITY           SKY/WX    TMP DP  RH WIND       PRES   REMARKS
PADUCAH        SUNNY     56  43  61 E10       30.31R
HENDERSON      SUNNY    N/A N/A N/A E10       30.32S
OWENSBORO      SUNNY     53  39  59 NE9       30.32S
HOPKINSVILLE   SUNNY     56  43  62 NE8       30.28F
BOWLING GREEN  SUNNY     55  39  54 NE12G17   30.29S
GLASGOW        NOT AVBL
$$

KYZ024-025-028>034-038-045-046-053-221700-
NORTH CENTRAL KENTUCKY

CITY           SKY/WX    TMP DP  RH WIND       PRES   REMARKS
LOUISVILLE/SDF MOSUNNY   55  40  56 VRB7      30.30S
LOUISVILLE/LOU SUNNY     54  41  61 N7        30.31S
FORT KNOX      MOSUNNY   53  39  61 VRB7      30.29S
$$

KYZ035>037-039>044-047>052-055>060-089>105-221700-
NORTHEAST KENTUCKY

CITY           SKY/WX    TMP DP  RH WIND       PRES   REMARKS
LEXINGTON      CLOUDY    51  41  68 N12       30.29R
COVINGTON      CLOUDY    52  39  61 N13       30.30R
FRANKFORT      MOSUNNY   52  40  63 N8        30.29S
$$

KYZ054-064>069-076>088-106>120-221700-
SOUTHEAST KENTUCKY

CITY           SKY/WX    TMP DP  RH WIND       PRES   REMARKS
JACKSON        CLOUDY    47  41  80 CALM      30.25S
LONDON         CLOUDY    48  39  71 NE7       30.27R
SOMERSET       PTSUNNY   50  41  71 N3        30.29R
MIDDLESBORO    NOT AVBL
MONTICELLO     SUNNY     54  41  61 E6        30.29R
$$




USA.gov is the U.S. government's official web portal to all federal, state and local government web resources and services.